Location: Calais Saint-Pierre
(50.9509°N, 1.8522°E)
Time: 11:43:42
(UTC+00:00)

Cosmos 1953 Rocket - Pass Details

Date: 15 May 2026
Orbit: 597 x 628 km, 82.5° (Epoch: 9 June)

Event Time Altitude Azimuth Distance (km) Brightness Sun altitude
Rises 22:11:39 0° 347° (NNW) 2,884 8.6 -16.8°
Reaches altitude 10° 22:13:54 10° 344° (NNW) 1,970 7.4 -17.0°
Maximum altitude 22:18:12 63° 264° (W) 678 3.8 -17.2°
Enters shadow 22:20:13 30° 193° (SSW) 1,096 4.4 -17.3°
